Voltar ao catálogo

STARLINK-3741

AtivoComunicaçõesVLEO
NORAD 52619·PAYLOAD·🇺🇸 United States

Lançado May 14, 2022 de Cape Canaveral Space Force Station

Loading…

Próximas Passagens (próximas 24 horas)

TLE

AtualizadoSource: CelesTrak SupGP

Época: Sep 14, 2026, 21:14 UTC

1 52619C 22052X   26257.88520833 -.00021579  00000+0 -63761-3 0  2571
2 52619  53.1579 125.8909 0001104 103.4584  15.6248 15.34398096    15

Acompanhe STARLINK-3741 em tempo real com AllMySat

Download on the App Store